CST,Max TemperatureF,Mean TemperatureF,Min TemperatureF,Max Dew PointF,MeanDew PointF,Min DewpointF,Max Humidity, Mean Humidity, Min Humidity, Max Sea Level PressureIn, Mean Sea Level PressureIn, Min Sea Level PressureIn, Max VisibilityMiles, Mean VisibilityMiles, Min VisibilityMiles, Max Wind SpeedMPH, Mean Wind SpeedMPH, Max Gust SpeedMPH,PrecipitationIn, CloudCover, Events, WindDirDegrees
2013-1-1,-23,-28,-33,,,,,,,30.03,30.00,29.97,9,7,2,12,9,,0.00,,Snow,123
2013-1-2,-25,-32,-40,,,,,,,30.09,30.00,29.85,9,5,2,15,9,,0.00,,,199
2013-1-3,-14,-22,-31,,,,,,,29.87,29.62,29.45,9,4,1,16,10,17,0.00,,,187
2013-1-4,-14,-24,-36,,,,,,,29.75,29.57,29.44,9,5,1,21,8,,0.00,,,334
2013-1-5,-7,-26,-45,,,,,,,29.77,29.58,29.43,9,2,0,26,10,20,0.00,,Snow,238
2013-1-6,-9,-16,-23,,,,,,,29.50,29.42,29.38,9,3,1,23,12,21,0.00,,,252
2013-1-7,-23,-30,-38,,,,,,,29.46,29.44,29.37,9,6,3,13,8,,0.00,,,124
2013-1-8,-34,-40,-47,,,,,,,29.62,29.51,29.41,9,8,3,12,7,,0.00,,,119
2013-1-9,-31,-40,-49,,,,,,,29.72,29.68,29.62,9,4,1,12,7,,0.00,,,222
2013-1-10,-27,-31,-35,,,,,,,29.98,29.85,29.68,4,2,1,17,12,17,0.00,,,238
2013-1-11,-36,-40,-44,,,,,,,30.01,29.98,29.95,9,3,1,14,10,,0.00,,,182
2013-1-12,-38,-41,-43,,,,,,,30.10,30.05,29.99,9,8,4,13,10,,0.00,,,150
2013-1-13,-39,-43,-47,,,,,,,30.12,30.10,30.04,9,8,4,10,7,,0.00,,,127
2013-1-14,-47,-51,-55,,,,,,,30.04,29.95,29.86,9,8,3,12,9,,0.00,,,125
2013-1-15,-27,-39,-51,,,,,,,29.85,29.69,29.53,9,4,1,9,6,,0.00,,,267
2013-1-16,-7,-20,-34,,,,,,,29.53,29.49,29.48,9,3,1,17,8,,0.00,,Snow,358
2013-1-17,-13,-20,-26,,,,,,,29.71,29.58,29.49,9,2,0,26,18,26,0.00,,,323
2013-1-18,-23,-26,-31,,,,,,,29.76,29.73,29.69,2,1,0,24,17,24,0.00,,,311
2013-1-19,-30,-33,-36,,,,,,,29.79,29.72,29.66,9,7,2,18,12,,0.00,,,260
2013-1-20,-22,-28,-35,,,,,,,29.86,29.82,29.78,9,7,1,13,8,,0.00,,,274
2013-1-21,-23,-28,-34,,,,,,,30.03,29.86,29.77,9,8,6,12,8,,0.00,,,145
2013-1-22,-25,-34,-43,,,,,,,30.25,30.19,30.05,9,8,2,10,7,,0.00,,,116
2013-1-23,-14,-22,-29,,,,,,,30.22,30.18,30.15,7,1,0,32,14,26,0.00,,,319
2013-1-24,-25,-30,-34,,,,,,,30.20,30.13,30.05,9,3,1,22,15,,0.00,,,273
2013-1-25,-31,-37,-43,,,,,,,30.04,29.99,29.95,9,9,9,12,8,,0.00,,,186
2013-1-26,-25,-35,-41,,,,,,,30.00,29.98,29.96,9,9,9,13,8,,0.00,,,155
2013-1-27,-13,-22,-31,,,,,,,29.99,29.96,29.93,9,8,2,12,9,,0.00,,,230
2013-1-28,-12,-16,-19,,,,,,,30.05,30.03,30.00,9,8,4,13,10,,0.00,,,285
2013-1-29,-16,-26,-36,,,,,,,30.03,29.97,29.90,9,6,2,15,8,,0.00,,,265
2013-1-30,-32,-38,-42,,,,,,,29.98,29.94,29.89,9,6,1,13,8,,0.00,,,275
2013-1-31,-31,-32,-34,,,,,,,29.92,29.84,29.72,5,3,1,18,11,17,0.00,,,277